Location: Unspecified
(38.9820°N, 0.0000°E)
Time: 18:41:06
(UTC+00:00)

Tiangong 2 - Pass Details

Date: 27 May 2019
Orbit: 376 x 389 km, 42.8° (Epoch: 18 June)

Event Time Altitude Azimuth Distance (km) Brightness Sun altitude
Rises 21:58:08 0° 288° (WNW) 2,236 5.7 -23.5°
Reaches altitude 10° 22:00:14 10° 283° (WNW) 1,382 4.4 -23.7°
Enters shadow 22:01:15 19° 277° (W) 984 3.5 -23.8°
